Content
SEND FEEDBACK

Daily
Averages
Monthly
Summary
United States of America

CHESTERFIELD, MISSOURI


Home > North America > United States > Missouri
Elevation: 559 feet     Latitude: 38 41N     Longitude: 090 31W

WEATHER
 
SELECT A DAY
Number of Records: 203,690;   Date Range: 1/1/95 - 9/20/14
 
SHARE

PRINT THIS DATA

[ ← Previous Day ]
WEATHER ALMANAC - APRIL 20, 2013
[ Next Day → ]
[ °C ]   °F
Weather ElementAverageHighLow
Temperature46.1 °F55 °F (2:51 pm)34 °F (5:51 am)
Dewpoint26.9 °F32 °F (10:51 pm)21.9 °F (3:51 pm)
Humidity49.9 %79 % (6:51 am)28 % (5:51 pm)
Barometer30.26 in30.35 in (10:51 pm)30.12 in (1:51 am)
Wind Speed5.8 mph11.5 mph (7:51 pm)
Weather ElementAverage
Visibility10 mi
Wind DirectionSE (137.8 °)

Weather ElementTotal
Precipitation---
Heating Degree Days20.5 (Base 65)
Averaged from 23 records on April 20, 2013
WEATHER CONDITIONS BREAKOUT
WIND DIRECTION BREAKOUT
WEATHER BY HOUR - APRIL 20, 2013
[ °C ]   °F
Local TimeTemperatureDewpointHumidityBarometerVisibilityWind DirectionWind SpeedGust SpeedPrecipitationEventsConditions
1:51 AM39.0 °F27.0 °F62 %30.12 in10.0 miWNW (290°)6.9 mphClear
2:51 AM39.0 °F27.0 °F62 %30.12 in10.0 miNW (310°)5.8 mphClear
3:51 AM37.9 °F27.0 °F65 %30.14 in10.0 miNNW (330°)4.6 mphClear
4:51 AM36.0 °F27.0 °F70 %30.18 in10.0 miCalmClear
5:51 AM34.0 °F27.0 °F75 %30.20 in10.0 miWSW (250°)3.5 mphClear
6:51 AM34.0 °F28.0 °F79 %30.23 in10.0 miSW (220°)4.6 mphClear
7:51 AM41.0 °F30.0 °F65 %30.26 in10.0 miCalmClear
8:51 AM42.1 °F27.0 °F55 %30.28 in10.0 miNorth (360°)4.6 mphPartly Cloudy
9:51 AM46.0 °F26.1 °F46 %30.30 in10.0 miWSW (250°)3.5 mphScattered Clouds
10:51 AM48.0 °F28.0 °F46 %30.31 in10.0 miWSW (250°)6.9 mphScattered Clouds
11:51 AM50.0 °F27.0 °F41 %30.31 in10.0 miNNW (330°)8.1 mphScattered Clouds
12:51 PM51.1 °F27.0 °F39 %30.30 in10.0 miVariable5.8 mphMostly Cloudy
1:51 PM53.1 °F26.1 °F35 %30.30 in10.0 miVariable5.8 mphMostly Cloudy
2:51 PM55.0 °F23.0 °F29 %30.29 in10.0 miVariable5.8 mphMostly Cloudy
3:51 PM53.1 °F21.9 °F30 %30.27 in10.0 miVariable6.9 mphMostly Cloudy
4:51 PM54.0 °F21.9 °F29 %30.27 in10.0 miCalmMostly Cloudy
5:51 PM55.0 °F21.9 °F28 %30.28 in10.0 miENE (60°)3.5 mphScattered Clouds
6:51 PM53.1 °F25.0 °F34 %30.27 in10.0 miESE (110°)9.2 mphScattered Clouds
7:51 PM51.1 °F28.9 °F43 %30.28 in10.0 miENE (70°)11.5 mphScattered Clouds
8:51 PM48.9 °F30.0 °F48 %30.31 in10.0 miEast (90°)11.5 mphScattered Clouds
9:51 PM48.0 °F28.9 °F48 %30.34 in10.0 miENE (70°)9.2 mphPartly Cloudy
10:51 PM46.0 °F32.0 °F58 %30.35 in10.0 miEast (80°)8.1 mphPartly Cloudy
11:51 PM45.0 °F32.0 °F60 %30.35 in10.0 miEast (100°)8.1 mphPartly Cloudy
Hourly data recorded from KSTL, located miles away from Chesterfield, Missouri







STORIES FROM OUR PARTNERS